GW3733 Weather Reports


time (UTC)temp
C
wind
direction
speed
KPH
gust
KPH
rain 1hr
cm
rain 24hr
cm
rain mn
cm
humidity
%
barometer
mb
20260506070519 18 345 0.0 0.0 0.00 0.00 0.00 56 1003.8
20260506062457 18 356 0.0 0.0 0.00 0.00 0.00 54 1004.2
20260506061953 18 261 1.6 3.2 0.00 0.00 0.00 54 1004.4
20260506061449 18 3 0.0 0.0 0.00 0.00 0.00 53 1004.4
20260506060947 18 3 1.6 3.2 0.00 0.00 0.00 51 1004.5
20260506060445 18 357 0.0 0.0 0.00 0.00 0.00 52 1004.5
20260506050914 18 64 0.0 3.2 0.00 0.00 0.00 52 1005.4
20260506050412 18 1 0.0 0.0 0.00 0.00 0.00 50 1005.6
20260506044902 19 12 0.0 0.0 0.00 0.00 0.00 49 1005.6
20260506044400 19 358 0.0 0.0 0.00 0.00 0.00 49 1005.4
20260506043857 19 5 0.0 0.0 0.00 0.00 0.00 49 1005.5
20260506043354 19 1 0.0 0.0 0.00 0.00 0.00 48 1005.4
20260506042852 20 2 0.0 0.0 0.00 0.00 0.00 48 1005.2
20260506042351 20 358 0.0 1.6 0.00 0.00 0.00 50 1005.3
20260506041849 20 354 0.0 0.0 0.00 0.00 0.00 48 1005.4
20260506041346 20 346 0.0 1.6 0.00 0.00 0.00 45 1005.5
20260506040843 20 19 1.6 1.6 0.00 0.00 0.00 44 1005.4
20260506040340 20 14 0.0 0.0 0.00 0.00 0.00 44 1005.3
20260506035836 20 336 0.0 1.6 0.00 0.00 0.00 45 1005.4
20260506035334 20 21 0.0 1.6 0.00 0.00 0.00 47 1005.3
20260506034831 20 359 0.0 0.0 0.00 0.00 0.00 46 1005.3
20260506034328 20 318 1.6 3.2 0.00 0.00 0.00 43 1005.4
20260506033825 20 5 0.0 0.0 0.00 0.00 0.00 46 1005.5
20260506033322 21 355 0.0 0.0 0.00 0.00 0.00 43 1005.3
20260506032819 20 39 3.2 3.2 0.00 0.00 0.00 44 1005.6
20260506032316 21 354 0.0 0.0 0.00 0.00 0.00 44 1005.4
20260506031812 21 336 1.6 1.6 0.00 0.00 0.00 43 1005.4
20260506031310 21 357 0.0 0.0 0.00 0.00 0.00 43 1005.3
20260506030807 21 353 3.2 3.2 0.00 0.00 0.00 43 1005.4
20260506030305 21 266 6.4 9.7 0.00 0.00 0.00 42 1005.4
20260506025802 21 330 1.6 1.6 0.00 0.00 0.00 44 1005.4
20260506025258 21 27 0.0 0.0 0.00 0.00 0.00 43 1005.4
20260506024755 21 233 1.6 3.2 0.00 0.00 0.00 42 1005.5
20260506024252 21 36 1.6 1.6 0.00 0.00 0.00 45 1005.6
20260506023748 21 2 0.0 1.6 0.00 0.00 0.00 42 1005.4
20260506023245 21 354 0.0 0.0 0.00 0.00 0.00 44 1005.6
20260506022742 21 342 3.2 3.2 0.00 0.00 0.00 43 1005.5
20260506022240 21 326 1.6 1.6 0.00 0.00 0.00 44 1005.5
20260506021738 21 29 0.0 0.0 0.00 0.00 0.00 42 1005.5
20260506021234 21 193 3.2 3.2 0.00 0.00 0.00 43 1005.6
20260506020731 21 277 1.6 3.2 0.00 0.00 0.00 44 1005.4
20260506020229 21 29 1.6 3.2 0.00 0.00 0.00 44 1005.2
20260506015726 21 326 1.6 1.6 0.00 0.00 0.00 43 1005.4
20260506015224 21 194 3.2 3.2 0.00 0.00 0.00 43 1005.3
20260506014721 21 7 0.0 0.0 0.00 0.00 0.00 43 1005.3
20260506014217 20 357 0.0 0.0 0.00 0.00 0.00 46 1005.3
20260506013714 21 351 0.0 0.0 0.00 0.00 0.00 46 1005.3
20260506013211 21 322 0.0 1.6 0.00 0.00 0.00 43 1005.2
20260506012707 21 3 1.6 1.6 0.00 0.00 0.00 43 1005.4
20260506012205 20 348 1.6 1.6 0.00 0.00 0.00 42 1005.4
20260506011702 21 8 0.0 0.0 0.00 0.00 0.00 43 1005.4
20260506011158 21 236 6.4 6.4 0.00 0.00 0.00 41 1005.3
20260506010657 21 316 0.0 0.0 0.00 0.00 0.00 44 1005.3
20260506010153 21 356 0.0 0.0 0.00 0.00 0.00 43 1005.2
20260506005650 20 152 3.2 4.8 0.00 0.00 0.00 41 1005.0
20260506005147 21 1 0.0 0.0 0.00 0.00 0.00 42 1005.1
20260506004643 21 304 1.6 1.6 0.00 0.00 0.00 43 1005.2
20260506004141 21 1 1.6 1.6 0.00 0.00 0.00 42 1004.8
20260506003637 21 331 0.0 1.6 0.00 0.00 0.00 41 1004.9
20260506003133 21 45 4.8 4.8 0.00 0.00 0.00 40 1005.0
20260506002629 22 345 1.6 1.6 0.00 0.00 0.00 43 1004.8
20260506002125 22 285 1.6 3.2 0.00 0.00 0.00 40 1004.5
20260506001621 22 192 3.2 4.8 0.00 0.00 0.00 39 1004.9
20260506001119 22 51 4.8 6.4 0.00 0.00 0.00 39 1004.4
20260506000616 22 37 3.2 4.8 0.00 0.00 0.00 40 1004.7
20260506000113 22 317 0.0 0.0 0.00 0.00 0.00 42 1004.7
20260505235611 22 318 0.0 1.6 0.00 0.00 0.00 43 1004.4
20260505235108 22 336 0.0 1.6 0.00 0.00 0.00 42 1004.4
20260505234605 22 298 1.6 1.6 0.00 0.00 0.00 43 1004.3
20260505234101 23 5 1.6 3.2 0.00 0.00 0.00 42 1004.3
20260505233559 23 251 4.8 4.8 0.00 0.00 0.00 41 1004.3
20260505233056 23 349 1.6 1.6 0.00 0.00 0.00 41 1004.3
20260505232554 23 335 3.2 3.2 0.00 0.00 0.00 39 1004.2
20260505232051 23 356 1.6 1.6 0.00 0.00 0.00 39 1004.4
20260505231548 23 201 6.4 11.3 0.00 0.00 0.00 39 1004.3
20260505231047 23 228 3.2 3.2 0.00 0.00 0.00 37 1004.1
20260505230544 23 179 6.4 6.4 0.00 0.00 0.00 38 1004.2
20260505230040 24 102 1.6 3.2 0.00 0.00 0.00 38 1004.2
20260505225537 25 314 3.2 4.8 0.00 0.00 0.00 36 1004.4
20260505225033 25 232 3.2 4.8 0.00 0.00 0.00 36 1004.2
20260505224531 25 344 1.6 3.2 0.00 0.00 0.00 37 1004.3
20260505224028 25 358 3.2 3.2 0.00 0.00 0.00 34 1004.4
20260505223525 25 294 3.2 4.8 0.00 0.00 0.00 35 1004.2
20260505223021 25 117 4.8 9.7 0.00 0.00 0.00 34 1004.4
20260505222517 25 7 0.0 0.0 0.00 0.00 0.00 35 1004.4
20260505222013 25 291 3.2 3.2 0.00 0.00 0.00 35 1004.4
20260505221511 25 319 1.6 3.2 0.00 0.00 0.00 37 1004.2
20260505221007 25 9 1.6 1.6 0.00 0.00 0.00 35 1004.2
20260505220504 25 9 0.0 1.6 0.00 0.00 0.00 35 1004.0
20260505220002 25 37 1.6 1.6 0.00 0.00 0.00 35 1004.3
20260505215500 25 1 0.0 0.0 0.00 0.00 0.00 36 1004.2
20260505214957 26 250 6.4 9.7 0.00 0.00 0.00 36 1003.9
20260505214455 26 317 1.6 3.2 0.00 0.00 0.00 36 1003.9
20260505213952 26 45 3.2 4.8 0.00 0.00 0.00 36 1004.1
20260505213450 26 346 9.7 11.3 0.00 0.00 0.00 33 1004.0
20260505212946 26 8 1.6 1.6 0.00 0.00 0.00 36 1004.0
20260505212443 26 324 0.0 0.0 0.00 0.00 0.00 37 1004.0
20260505211939 26 321 1.6 3.2 0.00 0.00 0.00 34 1003.9
20260505211437 26 310 4.8 4.8 0.00 0.00 0.00 33 1003.8
20260505210933 26 248 4.8 9.7 0.00 0.00 0.00 33 1003.8
20260505210430 26 199 6.4 9.7 0.00 0.00 0.00 35 1004.1
20260505205927 27 354 1.6 1.6 0.00 0.00 0.00 31 1003.7
20260505205426 27 337 1.6 3.2 0.00 0.00 0.00 28 1003.7
20260505204922 27 351 1.6 1.6 0.00 0.00 0.00 31 1003.8
20260505204420 27 267 4.8 4.8 0.00 0.00 0.00 28 1003.6
20260505203917 27 341 1.6 3.2 0.00 0.00 0.00 31 1003.8
20260505203413 26 330 3.2 3.2 0.00 0.00 0.00 35 1003.8
20260505202910 26 23 4.8 6.4 0.00 0.00 0.00 33 1004.0
20260505202406 26 282 4.8 6.4 0.00 0.00 0.00 33 1003.9
20260505201902 26 355 0.0 1.6 0.00 0.00 0.00 35 1004.0
20260505201400 26 312 3.2 4.8 0.00 0.00 0.00 35 1003.8
20260505200858 27 116 1.6 3.2 0.00 0.00 0.00 32 1004.0
20260505200355 27 315 1.6 1.6 0.00 0.00 0.00 36 1004.1
20260505195850 26 105 3.2 6.4 0.00 0.00 0.00 31 1004.1
20260505195348 27 340 3.2 4.8 0.00 0.00 0.00 32 1004.1
20260505194845 27 271 3.2 4.8 0.00 0.00 0.00 36 1004.0
20260505194342 27 304 4.8 4.8 0.00 0.00 0.00 32 1004.0
20260505193837 27 229 4.8 6.4 0.00 0.00 0.00 33 1004.1
20260505193335 27 234 1.6 1.6 0.00 0.00 0.00 31 1004.1
20260505192833 28 340 3.2 3.2 0.00 0.00 0.00 31 1004.4
20260505192331 28 206 4.8 6.4 0.00 0.00 0.00 30 1004.0
20260505191828 28 320 1.6 3.2 0.00 0.00 0.00 34 1004.1
20260505191327 27 309 3.2 4.8 0.00 0.00 0.00 33 1004.0
20260505190823 27 311 3.2 4.8 0.00 0.00 0.00 34 1004.1
20260505190318 27 49 4.8 9.7 0.00 0.00 0.00 33 1004.8
20260505185814 27 250 1.6 3.2 0.00 0.00 0.00 33 1004.4
20260505185311 26 322 3.2 3.2 0.00 0.00 0.00 35 1004.7
20260505184807 27 32 3.2 4.8 0.00 0.00 0.00 33 1004.7
20260505184304 27 358 0.0 0.0 0.00 0.00 0.00 33 1004.9
20260505183801 27 310 1.6 1.6 0.00 0.00 0.00 35 1004.9
20260505183258 28 291 4.8 4.8 0.00 0.00 0.00 37 1004.7
20260505182755 27 11 1.6 3.2 0.00 0.00 0.00 30 1004.9
20260505182251 28 59 1.6 1.6 0.00 0.00 0.00 31 1005.0
20260505181748 28 278 0.0 1.6 0.00 0.00 0.00 31 1005.0
20260505181246 28 53 0.0 1.6 0.00 0.00 0.00 36 1005.0
20260505180742 27 354 3.2 4.8 0.00 0.00 0.00 35 1005.1
20260505180239 28 265 6.4 6.4 0.00 0.00 0.00 30 1005.5
20260505175735 27 248 1.6 1.6 0.00 0.00 0.00 32 1005.5
20260505175232 27 213 3.2 3.2 0.00 0.00 0.00 33 1005.4
20260505174728 27 332 4.8 6.4 0.00 0.00 0.00 31 1005.3
20260505174225 27 298 4.8 6.4 0.00 0.00 0.00 32 1005.5
20260505173721 27 345 4.8 4.8 0.00 0.00 0.00 32 1005.5
20260505173218 27 139 4.8 6.4 0.00 0.00 0.00 32 1005.5
20260505172715 27 345 6.4 12.9 0.00 0.00 0.00 33 1005.5
20260505172212 27 56 3.2 4.8 0.00 0.00 0.00 35 1005.8
20260505171712 27 93 6.4 6.4 0.00 0.00 0.00 33 1005.6
20260505171209 27 315 4.8 4.8 0.00 0.00 0.00 38 1005.9
20260505170706 26 53 3.2 4.8 0.00 0.00 0.00 34 1006.2
20260505170203 26 339 1.6 3.2 0.00 0.00 0.00 34 1006.0
20260505165703 26 319 6.4 6.4 0.00 0.00 0.00 35 1006.2
20260505165159 26 318 4.8 6.4 0.00 0.00 0.00 36 1006.1
20260505164655 26 31 4.8 6.4 0.00 0.00 0.00 35 1006.2
20260505164153 26 286 4.8 4.8 0.00 0.00 0.00 41 1006.5
20260505163651 25 130 1.6 1.6 0.00 0.00 0.00 36 1006.4
20260505163149 26 342 4.8 6.4 0.00 0.00 0.00 37 1006.6
20260505162646 25 42 0.0 1.6 0.00 0.00 0.00 36 1006.5
20260505162143 26 316 3.2 3.2 0.00 0.00 0.00 36 1006.7
20260505161640 26 2 6.4 9.7 0.00 0.00 0.00 35 1006.7
20260505161137 26 290 3.2 3.2 0.00 0.00 0.00 35 1006.6
20260505160635 26 351 3.2 6.4 0.00 0.00 0.00 38 1006.6
20260505160132 26 333 4.8 6.4 0.00 0.00 0.00 36 1006.8
20260505153112 25 332 3.2 4.8 0.00 0.00 0.00 38 1007.0
20260505152608 25 243 4.8 4.8 0.00 0.00 0.00 40 1006.9
20260505152104 25 317 1.6 3.2 0.00 0.00 0.00 40 1007.0
20260505151559 25 162 8.0 11.3 0.00 0.00 0.00 40 1006.7
20260505151057 25 236 14.5 17.7 0.00 0.00 0.00 38 1007.1
20260505150553 25 302 3.2 4.8 0.00 0.00 0.00 39 1006.9
20260505140519 23 307 3.2 9.7 0.00 0.00 0.00 44 1006.7
20260505124932 21 349 3.2 4.8 0.00 0.00 0.00 54 1007.1
20260505124429 21 149 0.0 1.6 0.00 0.00 0.00 53 1007.3
20260505123925 20 344 0.0 0.0 0.00 0.00 0.00 57 1007.1
20260505123421 20 22 0.0 0.0 0.00 0.00 0.00 58 1007.3
20260505122917 19 40 1.6 3.2 0.00 0.00 0.00 61 1007.4
20260505122415 18 81 1.6 3.2 0.00 0.00 0.00 68 1007.2
20260505121911 18 39 3.2 4.8 0.00 0.00 0.00 64 1007.5
20260505121409 17 118 3.2 4.8 0.00 0.00 0.00 69 1007.4
20260505120904 17 10 1.6 1.6 0.00 0.00 0.00 75 1007.5
20260505120401 16 7 1.6 3.2 0.00 0.00 0.00 72 1007.5
20260505115859 15 0 1.6 1.6 0.00 0.00 0.00 74 1007.4
20260505115357 15 77 0.0 1.6 0.00 0.00 0.00 77 1007.5
20260505114855 13 28 0.0 0.0 0.00 0.00 0.00 81 1007.8
20260505114351 12 15 0.0 0.0 0.00 0.00 0.00 87 1007.8
20260505113847 11 2 0.0 0.0 0.00 0.00 0.00 91 1007.6
20260505113344 11 353 0.0 0.0 0.00 0.00 0.00 94 1007.3
20260505112839 10 355 0.0 0.0 0.00 0.00 0.00 95 1007.5
20260505112337 10 355 0.0 0.0 0.00 0.00 0.00 96 1007.6
20260505111833 10 355 0.0 0.0 0.00 0.00 0.00 96 1007.3
20260505111328 10 355 0.0 0.0 0.00 0.00 0.00 96 1007.3
20260505110825 10 355 0.0 0.0 0.00 0.00 0.00 97 1007.2
20260505110322 10 355 0.0 0.0 0.00 0.00 0.00 97 1007.1
20260505101756 10 354 0.0 1.6 0.00 0.00 0.00 96 1006.5
20260505101252 10 354 0.0 1.6 0.00 0.00 0.00 96 1006.6
20260505100749 10 354 0.0 0.0 0.00 0.00 0.00 96 1006.6
20260505100245 10 354 0.0 0.0 0.00 0.00 0.00 96 1006.4
20260505095741 10 354 0.0 0.0 0.00 0.00 0.00 96 1006.4
20260505095239 10 354 0.0 0.0 0.00 0.00 0.00 96 1006.6
20260505094734 9 354 0.0 0.0 0.00 0.00 0.00 96 1006.5
20260505094231 9 354 0.0 0.0 0.00 0.00 0.00 96 1006.2
20260505093727 9 354 0.0 0.0 0.00 0.00 0.00 97 1006.2
20260505093225 9 354 0.0 0.0 0.00 0.00 0.00 97 1006.5
20260505092721 9 354 0.0 0.0 0.00 0.00 0.00 97 1006.3
20260505092220 9 354 0.0 0.0 0.00 0.00 0.00 96 1006.6
20260505091717 9 355 0.0 0.0 0.00 0.00 0.00 96 1006.4
20260505091215 9 355 0.0 0.0 0.00 0.00 0.00 96 1006.4
20260505090712 9 355 0.0 0.0 0.00 0.00 0.00 96 1006.4
20260505090211 9 355 0.0 0.0 0.00 0.00 0.00 96 1006.1
20260505085708 9 355 0.0 0.0 0.00 0.00 0.00 96 1006.2
20260505085206 9 355 0.0 0.0 0.00 0.00 0.00 95 1006.3
20260505084703 10 357 0.0 0.0 0.00 0.00 0.00 94 1006.1
20260505084202 10 359 0.0 0.0 0.00 0.00 0.00 92 1006.2
20260505083658 10 359 0.0 0.0 0.00 0.00 0.00 91 1006.2
20260505083155 10 16 0.0 0.0 0.00 0.00 0.00 90 1006.1
20260505082651 10 12 0.0 0.0 0.00 0.00 0.00 91 1006.1
20260505082148 10 8 0.0 0.0 0.00 0.00 0.00 94 1006.2
20260505081644 10 359 0.0 0.0 0.00 0.00 0.00 95 1006.1
20260505081142 10 7 0.0 0.0 0.00 0.00 0.00 95 1006.0
20260505080638 9 14 0.0 0.0 0.00 0.00 0.00 96 1005.9
20260505080134 8 354 0.0 1.6 0.00 0.00 0.00 98 1006.1
20260505075631 8 352 0.0 0.0 0.00 0.00 0.00 99 1006.1
20260505075127 8 351 0.0 0.0 0.00 0.00 0.00 99 1005.9
20260505074624 8 352 0.0 0.0 0.00 0.00 0.00 99 1006.0
20260505074121 8 352 0.0 0.0 0.00 0.00 0.00 99 1005.9
20260505073619 8 352 0.0 0.0 0.00 0.00 0.00 99 1005.7
20260505073117 7 352 0.0 0.0 0.00 0.00 0.00 99 1005.7
20260505072612 7 352 0.0 0.0 0.00 0.00 0.00 99 1005.9
20260505072109 7 352 0.0 0.0 0.00 0.00 0.00 99 1005.7
20260505071604 7 352 0.0 0.0 0.00 0.00 0.00 99 1005.8
20260505071103 7 352 0.0 0.0 0.00 0.00 0.00 99 1005.8